Time,TemperatureF,DewpointF,PressureIn,WindDirection,WindDirectionDegrees,WindSpeedMPH,WindSpeedGustMPH,Humidity,HourlyPrecipIn,Conditions,Clouds,dailyrainin,SoftwareType,DateUTC
2013-09-29 00:02:00,-999.0,-99.9,30.00,SW,215,8.0,10.0,-999,-99.99,,,-99.99,,2013-09-29 04:02:00,
2013-09-29 00:14:00,70.0,59.0,30.00,SW,215,8.0,10.0,69,0.00,,,0.00,,2013-09-29 04:14:00,
2013-09-29 00:24:00,70.0,59.0,30.00,SW,215,8.0,10.0,69,0.00,,,0.00,,2013-09-29 04:24:00,
2013-09-29 00:54:00,70.0,60.0,30.01,SSW,212,7.0,10.0,70,0.00,,,0.00,,2013-09-29 04:54:00,
2013-09-29 01:13:00,70.0,60.0,30.01,SW,225,7.0,9.0,70,0.00,,,0.00,,2013-09-29 05:13:00,
2013-09-29 01:22:00,70.0,60.0,30.01,SW,225,7.0,9.0,70,0.00,,,0.00,,2013-09-29 05:22:00,
2013-09-29 01:52:00,69.0,59.0,30.00,SW,227,9.0,13.0,70,0.00,,,0.00,,2013-09-29 05:52:00,
2013-09-29 02:12:00,70.0,60.0,30.00,SSW,211,7.0,7.0,71,0.00,,,0.00,,2013-09-29 06:12:00,
2013-09-29 02:22:00,70.0,60.0,30.00,SSW,211,7.0,7.0,71,0.00,,,0.00,,2013-09-29 06:22:00,
2013-09-29 02:52:00,69.0,60.0,30.00,SSW,212,8.0,10.0,73,0.00,,,0.00,,2013-09-29 06:52:00,
2013-09-29 03:11:00,69.0,60.0,30.00,WSW,239,7.0,10.0,72,0.00,,,0.00,,2013-09-29 07:11:00,
2013-09-29 03:22:00,69.0,60.0,30.00,WSW,239,7.0,10.0,72,0.00,,,0.00,,2013-09-29 07:22:00,
2013-09-29 03:52:00,69.0,61.0,29.98,WSW,238,7.0,10.0,75,0.00,,,0.00,,2013-09-29 07:52:00,
2013-09-29 04:12:00,69.0,61.0,29.98,WSW,243,8.0,10.0,75,0.00,,,0.00,,2013-09-29 08:12:00,
2013-09-29 04:22:00,69.0,61.0,29.98,WSW,243,8.0,10.0,75,0.00,,,0.00,,2013-09-29 08:22:00,
2013-09-29 04:52:00,69.0,60.0,29.98,SW,231,7.0,10.0,74,0.00,,,0.00,,2013-09-29 08:52:00,
2013-09-29 05:22:00,69.0,61.0,29.97,WSW,250,9.0,12.0,75,0.00,,,0.00,,2013-09-29 09:22:00,
2013-09-29 05:53:00,68.0,62.0,29.97,WSW,242,5.0,10.0,80,0.00,,,0.00,,2013-09-29 09:53:00,
2013-09-29 06:12:00,67.0,63.0,29.97,WSW,250,8.0,8.0,86,0.01,,,0.01,,2013-09-29 10:12:00,
2013-09-29 06:23:00,67.0,63.0,29.97,WSW,250,8.0,8.0,86,0.01,,,0.01,,2013-09-29 10:23:00,
2013-09-29 06:53:00,65.0,64.0,29.98,WSW,242,2.0,5.0,96,0.06,,,0.06,,2013-09-29 10:53:00,
2013-09-29 07:22:00,64.0,64.0,29.99,WNW,289,1.0,9.0,99,0.11,,,0.12,,2013-09-29 11:22:00,
2013-09-29 07:52:00,64.0,64.0,29.99,West,267,2.0,2.0,99,0.15,,,0.21,,2013-09-29 11:52:00,
2013-09-29 08:21:00,63.0,63.0,29.99,SSW,202,2.0,0.0,99,0.11,,,0.27,,2013-09-29 12:21:00,
2013-09-29 08:52:00,63.0,63.0,29.99,WSW,242,6.0,9.0,99,0.06,,,0.27,,2013-09-29 12:52:00,
2013-09-29 09:22:00,63.0,63.0,29.99,North,355,3.0,8.0,99,0.02,,,0.28,,2013-09-29 13:22:00,
2013-09-29 09:53:00,61.0,61.0,30.00,North,6,2.0,7.0,99,0.01,,,0.28,,2013-09-29 13:53:00,
2013-09-29 10:21:00,60.0,60.0,30.01,North,354,1.0,5.0,99,0.00,,,0.28,,2013-09-29 14:21:00,
2013-09-29 10:52:00,60.0,60.0,30.02,North,0,0.0,0.0,99,0.00,,,0.28,,2013-09-29 14:52:00,
2013-09-29 11:22:00,60.0,60.0,30.03,North,10,2.0,12.0,99,0.00,,,0.28,,2013-09-29 15:22:00,
2013-09-29 11:54:00,61.0,61.0,30.03,NE,49,2.0,8.0,99,0.00,,,0.28,,2013-09-29 15:54:00,
2013-09-29 12:13:00,61.0,61.0,30.03,North,2,0.0,9.0,99,0.00,,,0.28,,2013-09-29 16:13:00,
2013-09-29 12:24:00,61.0,61.0,30.03,North,2,0.0,9.0,99,0.00,,,0.28,,2013-09-29 16:24:00,
2013-09-29 12:54:00,62.0,62.0,30.03,NNE,21,3.0,6.0,99,0.00,,,0.28,,2013-09-29 16:54:00,
2013-09-29 13:24:00,63.0,63.0,30.03,NNE,27,3.0,7.0,99,0.00,,,0.28,,2013-09-29 17:24:00,
2013-09-29 13:34:00,63.0,63.0,30.03,NNE,27,3.0,7.0,99,0.00,,,0.28,,2013-09-29 17:34:00,
2013-09-29 13:52:00,64.0,64.0,30.03,NNE,20,0.0,0.0,99,0.00,,,0.28,,2013-09-29 17:52:00,
2013-09-29 14:13:00,66.0,65.0,30.02,NW,316,0.0,0.0,95,0.00,,,0.28,,2013-09-29 18:13:00,
2013-09-29 14:22:00,66.0,65.0,30.02,NW,316,0.0,0.0,95,0.00,,,0.28,,2013-09-29 18:22:00,
2013-09-29 14:52:00,67.0,64.0,30.01,ENE,58,0.0,0.0,91,0.00,,,0.28,,2013-09-29 18:52:00,
2013-09-29 15:11:00,68.0,64.0,29.99,ENE,58,0.0,0.0,86,0.00,,,0.28,,2013-09-29 19:11:00,
2013-09-29 15:22:00,68.0,64.0,29.99,ENE,58,0.0,0.0,86,0.00,,,0.28,,2013-09-29 19:22:00,
2013-09-29 15:52:00,69.0,61.0,29.98,NW,325,3.0,7.0,75,0.00,,,0.28,,2013-09-29 19:52:00,
2013-09-29 16:12:00,70.0,59.0,29.98,NNE,29,5.0,7.0,68,0.00,,,0.28,,2013-09-29 20:12:00,
2013-09-29 16:22:00,70.0,59.0,29.98,NNE,29,5.0,7.0,68,0.00,,,0.28,,2013-09-29 20:22:00,
2013-09-29 16:52:00,70.0,59.0,29.98,North,359,3.0,8.0,69,0.00,,,0.28,,2013-09-29 20:52:00,
2013-09-29 17:11:00,70.0,58.0,29.98,NNW,341,5.0,6.0,65,0.00,,,0.28,,2013-09-29 21:11:00,
2013-09-29 17:21:00,70.0,58.0,29.98,NNW,341,5.0,6.0,65,0.00,,,0.28,,2013-09-29 21:21:00,
2013-09-29 17:54:00,70.0,55.0,29.98,North,3,3.0,8.0,60,0.00,,,0.28,,2013-09-29 21:54:00,
2013-09-29 18:14:00,69.0,57.0,29.98,NNE,20,0.0,0.0,66,0.00,,,0.28,,2013-09-29 22:14:00,
2013-09-29 18:24:00,69.0,57.0,29.98,NNE,20,0.0,0.0,66,0.00,,,0.28,,2013-09-29 22:24:00,
2013-09-29 18:53:00,69.0,57.0,29.98,NE,56,0.0,0.0,66,0.00,,,0.28,,2013-09-29 22:53:00,
2013-09-29 19:12:00,68.0,58.0,29.98,NE,49,0.0,0.0,70,0.00,,,0.28,,2013-09-29 23:12:00,
2013-09-29 19:23:00,68.0,58.0,29.98,NE,49,0.0,0.0,70,0.00,,,0.28,,2013-09-29 23:23:00,
2013-09-29 19:43:00,66.0,57.0,29.99,NNE,20,0.0,0.0,72,0.00,,,0.28,,2013-09-29 23:43:00,
2013-09-29 19:52:00,66.0,57.0,29.99,NNE,20,0.0,0.0,72,0.00,,,0.28,,2013-09-29 23:52:00,
2013-09-29 20:22:00,65.0,58.0,29.99,NNE,20,0.0,0.0,78,0.00,,,0.28,,2013-09-30 00:22:00,
2013-09-29 20:52:00,62.0,58.0,30.00,NNE,20,0.0,0.0,88,0.00,,,0.28,,2013-09-30 00:52:00,
2013-09-29 21:22:00,60.0,57.0,30.00,NNE,20,0.0,0.0,91,0.00,,,0.28,,2013-09-30 01:22:00,
2013-09-29 21:52:00,59.0,57.0,30.00,NNE,20,0.0,0.0,93,0.00,,,0.28,,2013-09-30 01:52:00,
2013-09-29 22:12:00,58.0,57.0,30.01,NNE,20,0.0,0.0,96,0.00,,,0.28,,2013-09-30 02:12:00,
2013-09-29 22:22:00,58.0,57.0,30.01,NNE,20,0.0,0.0,96,0.00,,,0.28,,2013-09-30 02:22:00,
2013-09-29 22:52:00,56.0,56.0,30.01,NNE,20,0.0,0.0,99,0.00,,,0.28,,2013-09-30 02:52:00,
2013-09-29 23:12:00,55.0,55.0,30.01,NNE,20,0.0,0.0,99,0.00,,,0.28,,2013-09-30 03:12:00,
2013-09-29 23:22:00,55.0,55.0,30.01,NNE,20,0.0,0.0,99,0.00,,,0.28,,2013-09-30 03:22:00,
2013-09-29 23:55:00,54.0,54.0,30.01,NNE,20,0.0,0.0,99,0.00,,,0.28,,2013-09-30 03:55:00,